Showing default

O3B FM3, 40079

Orbit data source: Space-Track

O3B FM3, 40079 is a payload satellite owned by O3B (JE) that was launched on Thu, 10 Jul 2014 UTC via a SOYUZ-ST-B launch vehicle from the French Guiana (FRGUI). Payload-class satellites include a variety of spacecraft equipped with specific instruments for various scientific and technological missions. These include communications satellites like Starlink; space stations such as the ISS; scientific satellites like the Hubble; Earth observation satellites from companies like Planet Labs, Umbra, and HawkEye 360; GPS; miniature CubeSats for education and research; and military/defense satellites.

Loading next visibility...
Identifier
40079, 2014-038A
Orbit
Active
Country
Flag of UnknownUnknown / O3B
Related business
Manufacturer
Thales Alenia
Mission
Operational Commercial Communications
Bus & Motor
PRISMA?, LS-400 AOCS?
Mass
700 kg wet, ~500 kg dry
Launch date (UTC)
2014-07-10 (12 years ago)
Launch vehicle
SOYUZ-ST-B
Launch site
French Guiana (FRGUI)
Object type
Payload
Rocket body
Debris
Shape & HBR
Trap Box + 2 Pan, 6.0 m
Radar Cross Section
21.980 m², Large (>1 m²)

Expand to show TLE details & history
Last TLE update: 14 hours ago

TLE from 14 hours ago
0 O3B FM3
1 40079U 14038A   26034.17914948 -.00000026  00000-0  00000+0 0  9992
2 40079   0.0527 354.0073 0000293 291.9116  74.0703  5.00115554206343
Epoch: 2026-02-03T04:17Z
TLE epoch observation values (Epoch: 2026-02-03T04:17:58.515Z)
Latitude
0.00053°
Longitude
162.14239°
Altitude
8,064.254 km
Speed
5.254 km/s
True Right ascension
00h 00m 00s
True Declination
0° 00' 02"
Sunlit
Object was in daylight at epoch
Visualization orbit readout
Latitude
Unknown
Longitude
Unknown
Altitude
Unknown
Speed
Unknown
Apparent Right ascension
Unknown
Apparent Declination
Unknown
Sunlit
N/A
Visualization observer readout
Local Sidereal Time
20:26:46
Azimuth
Unknown
Elevation
Unknown
Doppler factor
Unknown
Orbital elements
Apogee altitude
8,069.371 km
Perigee altitude
8,068.524 km
Semi-major axis
14,447.085 km
Eccentricity
0.00003
Inclination
0.0527°
RAAN
354.0073°
Arg. of periapsis
291.9116°
True anomaly
74.07353°
Mean anomaly
74.0703°
Eccentric anomaly
74.07191°
Mean motion
1.24989 °/min
Orbital period
288.02 mins
BSTAR
0
Loading maneuver chart data...
Computing Atmospheric mass density...
Loading historical data...
Loading historical data...
Loading historical data...
Loading historical data...
Loading historical data...
Loading historical data...
Loading historical data...
Other satellites on launch #38 in the year 2014 (2014-07-10 UTC)

Documentation

Showing up to 5 results
|